Terminal Aerodrome Forecast
Issued by NWS Pittsburgh, PA

Current Version | Previous Version | Text Only | Print | Product List | Glossary Off
Versions: 1 2 3 4 5 6 7 8 9 10 11 12 13 14 15 16 17 18 19 20 21 22 23 24 25 26

000
FTUS41 KPBZ 172300
TAFPIT
TAF
KPIT 172320Z 1800/1906 23008KT P6SM BKN040
     FM180700 26010KT P6SM VCSH BKN020
     FM181400 27010G20KT P6SM VCSH BKN020
     FM190000 30012KT 6SM -SHRA OVC020=

USA.gov is the U.S. government's official web portal to all federal, state and local government web resources and services.